Location: Unspecified
(22.6800°N, 112.2000°E)
Time: 07:07:46
(UTC+08:00)

S-56A Canister/Altair - Pass Details

Date: 26 July 2021
Orbit: 632 x 2500 km, 38.9° (Epoch: 26 September)

Event Time Altitude Azimuth Distance (km) Brightness Sun altitude
Rises 16:20:56 0° 245° (WSW) 5,581 12.6 38.1°
Reaches altitude 10° 16:24:19 10° 247° (WSW) 4,758 12.5 37.3°
Maximum altitude 16:38:30 70° 330° (NNW) 2,602 11.0 34.1°
Drops below altitude 10° 16:53:18 10° 54° (NE) 4,928 11.4 30.7°
Sets 16:56:54 0° 57° (ENE) 5,782 11.6 29.9°
